Location: Mound City (historical)
(34.0564°N, 117.2656°W)
Time: 03:23:18
(UTC+00:00)

Cosmos 1833 - Pass Details

Date: 08 September 2024
Orbit: 830 x 868 km, 70.9° (Epoch: 10 October)

Event Time Altitude Azimuth Distance (km) Brightness Sun altitude
Exits shadow 12:10:50 19° 217° (SW) 1,875 5.5 -16.4°
Maximum altitude 12:14:47 61° 293° (WNW) 961 4.2 -15.6°
Drops below altitude 10° 12:20:26 10° 13° (NNE) 2,488 7.0 -14.5°
Sets 12:22:57 0° 17° (NNE) 3,434 7.9 -14.0°
